RYR4982 LGTS-LGSA

Flight info

Callsign RYR4982
Flight time 0h 51m
Altitude 31000
Route LEKPO UL617 SKP UM749 ATV UP169 MANOK UL612 RUSOS
Aircraft B38M/M-SADE3FGILRWY/SB1

Departure

Time 2026-05-04 18:42
Airport Thessaloniki Macedonia International Airport (LGTS)

Arrival

Time 2026-05-04 19:33
Airport Chania International Airport (LGSA)
Time Latitude Longitude Altitude Speed Heading
2026-05-04 18:20 40.52367 22.97506 21 ft 0 kts 45°
2026-05-04 18:34 40.52365 22.97503 24 ft 2 kts 44°
2026-05-04 18:34 40.52345 22.97483 23 ft 4 kts 24°
2026-05-04 18:34 40.52320 22.97475 21 ft 4 kts 356°
2026-05-04 18:35 40.52296 22.97484 23 ft 3 kts 319°
2026-05-04 18:35 40.52293 22.97488 22 ft 0 kts 315°
2026-05-04 18:37 40.52295 22.97486 22 ft 1 kts 315°
2026-05-04 18:37 40.52316 22.97458 20 ft 8 kts 315°
2026-05-04 18:37 40.52366 22.97393 19 ft 10 kts 316°
2026-05-04 18:37 40.52389 22.97360 19 ft 4 kts 304°
2026-05-04 18:38 40.52394 22.97332 19 ft 3 kts 272°
2026-05-04 18:38 40.52392 22.97294 20 ft 5 kts 264°
2026-05-04 18:38 40.52387 22.97234 19 ft 8 kts 264°
2026-05-04 18:38 40.52397 22.97156 20 ft 10 kts 319°
2026-05-04 18:39 40.52463 22.97124 20 ft 10 kts 346°
2026-05-04 18:39 40.52536 22.97101 23 ft 11 kts 346°
2026-05-04 18:39 40.52604 22.97076 25 ft 10 kts 347°
2026-05-04 18:39 40.52675 22.97054 27 ft 11 kts 347°
2026-05-04 18:40 40.52763 22.97028 27 ft 15 kts 347°
2026-05-04 18:40 40.52876 22.96993 27 ft 18 kts 345°
2026-05-04 18:40 40.52999 22.96953 25 ft 16 kts 346°
2026-05-04 18:40 40.53065 22.96890 21 ft 13 kts 277°
2026-05-04 18:41 40.53014 22.96785 20 ft 15 kts 212°
2026-05-04 18:41 40.52913 22.96795 25 ft 17 kts 167°
2026-05-04 18:41 40.52562 22.96907 25 ft 94 kts 166°
2026-05-04 18:41 40.51687 22.97190 54 ft 157 kts 165°
2026-05-04 18:42 40.50593 22.97471 780 ft 165 kts 169°
2026-05-04 18:42 40.49440 22.97748 1617 ft 171 kts 169°
2026-05-04 18:42 40.48241 22.98134 2289 ft 191 kts 170°
2026-05-04 18:42 40.46834 22.98523 2783 ft 220 kts 170°
2026-05-04 18:43 40.45263 22.98963 3456 ft 242 kts 169°
2026-05-04 18:43 40.43563 22.99453 4203 ft 260 kts 168°
2026-05-04 18:43 40.41735 22.99988 4926 ft 278 kts 167°
2026-05-04 18:43 40.39841 23.00548 5822 ft 284 kts 166°
2026-05-04 18:44 40.37909 23.01120 6879 ft 287 kts 166°
2026-05-04 18:44 40.36584 23.01512 7507 ft 290 kts 166°
2026-05-04 18:44 40.34042 23.02604 8825 ft 292 kts 148°
2026-05-04 18:44 40.32443 23.04239 9824 ft 294 kts 133°
2026-05-04 18:45 40.31002 23.06176 10665 ft 301 kts 134°
2026-05-04 18:45 40.29245 23.07721 11478 ft 309 kts 156°
2026-05-04 18:45 40.27214 23.08696 12359 ft 314 kts 158°
2026-05-04 18:45 40.25180 23.09673 13194 ft 318 kts 158°
2026-05-04 18:46 40.23091 23.10665 14043 ft 321 kts 158°
2026-05-04 18:46 40.20964 23.11666 14687 ft 329 kts 158°
2026-05-04 18:46 40.18798 23.12681 15402 ft 332 kts 158°
2026-05-04 18:46 40.16612 23.13704 16108 ft 335 kts 158°
2026-05-04 18:47 40.14410 23.14732 16840 ft 338 kts 158°
2026-05-04 18:47 40.12190 23.15769 17592 ft 340 kts 158°
2026-05-04 18:47 40.09963 23.16858 18307 ft 343 kts 157°
2026-05-04 18:47 40.07718 23.17969 18934 ft 346 kts 158°
2026-05-04 18:48 40.05486 23.19069 19539 ft 349 kts 158°
2026-05-04 18:48 40.03209 23.20189 20149 ft 351 kts 158°
2026-05-04 18:48 40.00912 23.21318 20761 ft 354 kts 158°
2026-05-04 18:48 39.98604 23.22452 21367 ft 356 kts 158°
2026-05-04 18:49 39.96280 23.23591 21976 ft 358 kts 158°
2026-05-04 18:49 39.93938 23.24740 22563 ft 361 kts 158°
2026-05-04 18:49 39.91581 23.25895 23137 ft 363 kts 158°
2026-05-04 18:49 39.89205 23.27062 23708 ft 366 kts 158°
2026-05-04 18:50 39.86816 23.28234 24181 ft 368 kts 158°
2026-05-04 18:50 39.84445 23.29397 24662 ft 371 kts 158°
2026-05-04 18:50 39.81988 23.30601 24760 ft 385 kts 158°
2026-05-04 18:50 39.79431 23.31853 24871 ft 399 kts 158°
2026-05-04 18:51 39.76824 23.33128 25314 ft 401 kts 158°
2026-05-04 18:51 39.74207 23.34406 25812 ft 403 kts 158°
2026-05-04 18:51 39.71576 23.35690 26270 ft 405 kts 158°
2026-05-04 18:51 39.68932 23.36978 26744 ft 407 kts 158°
2026-05-04 18:52 39.66278 23.38271 27198 ft 409 kts 158°
2026-05-04 18:52 39.63608 23.39570 27638 ft 411 kts 158°
2026-05-04 18:52 39.60956 23.40860 28071 ft 414 kts 158°
2026-05-04 18:52 39.58253 23.42173 28509 ft 416 kts 158°
2026-05-04 18:53 39.55538 23.43492 28919 ft 418 kts 158°
2026-05-04 18:53 39.52799 23.44819 29253 ft 423 kts 158°
2026-05-04 18:53 39.50042 23.46156 29682 ft 424 kts 158°
2026-05-04 18:53 39.47269 23.47499 30085 ft 426 kts 158°
2026-05-04 18:54 39.44486 23.48845 30418 ft 429 kts 158°
2026-05-04 18:54 39.41688 23.50200 30720 ft 431 kts 158°
2026-05-04 18:54 39.38866 23.51567 31006 ft 434 kts 158°
2026-05-04 18:54 39.36065 23.52924 31280 ft 438 kts 158°
2026-05-04 18:55 39.33200 23.54309 31560 ft 441 kts 158°
2026-05-04 18:55 39.27416 23.57099 32068 ft 448 kts 159°
2026-05-04 18:55 39.24486 23.58508 32350 ft 450 kts 159°
2026-05-04 18:56 39.21543 23.59923 32619 ft 454 kts 159°
2026-05-04 18:56 39.18563 23.61298 32867 ft 457 kts 164°
2026-05-04 18:56 39.15422 23.61938 33143 ft 459 kts 174°
2026-05-04 18:56 39.12238 23.62421 33358 ft 463 kts 173°
2026-05-04 18:57 39.09075 23.62916 33611 ft 465 kts 173°
2026-05-04 18:57 39.05852 23.63402 33817 ft 469 kts 174°
2026-05-04 18:57 38.99297 23.64373 34257 ft 475 kts 174°
2026-05-04 18:58 38.96009 23.64859 34520 ft 477 kts 174°
2026-05-04 18:58 38.92712 23.65345 34816 ft 477 kts 175°
2026-05-04 18:58 38.89410 23.65832 35110 ft 478 kts 175°
2026-05-04 18:58 38.86107 23.66318 35394 ft 478 kts 175°
2026-05-04 18:59 38.82787 23.66806 35520 ft 483 kts 175°
2026-05-04 18:59 38.79479 23.67293 35702 ft 485 kts 175°
2026-05-04 18:59 38.76127 23.67785 36000 ft 485 kts 175°
2026-05-04 18:59 38.72770 23.68277 36269 ft 486 kts 175°
2026-05-04 19:00 38.69416 23.68768 36546 ft 486 kts 175°
2026-05-04 19:00 38.66059 23.69260 36797 ft 486 kts 175°
2026-05-04 19:00 38.62698 23.69751 36998 ft 487 kts 176°
2026-05-04 19:00 38.59328 23.70243 37142 ft 488 kts 176°
2026-05-04 19:01 38.52558 23.71232 37129 ft 489 kts 176°
2026-05-04 19:01 38.45848 23.72209 37151 ft 489 kts 176°
2026-05-04 19:02 38.39088 23.73191 37139 ft 489 kts 176°
2026-05-04 19:02 38.32308 23.74175 37146 ft 490 kts 176°
2026-05-04 19:03 38.25529 23.75157 37160 ft 490 kts 176°
2026-05-04 19:03 38.18821 23.76126 37131 ft 488 kts 176°
2026-05-04 19:04 38.12077 23.77103 37131 ft 488 kts 176°
2026-05-04 19:04 38.05325 23.78079 37134 ft 488 kts 176°
2026-05-04 19:05 37.98577 23.79052 37136 ft 488 kts 176°
2026-05-04 19:05 37.91823 23.80024 37155 ft 490 kts 176°
2026-05-04 19:06 37.85103 23.81086 37137 ft 490 kts 175°
2026-05-04 19:06 37.78333 23.82179 37150 ft 490 kts 175°
2026-05-04 19:07 37.71578 23.83264 37140 ft 490 kts 176°
2026-05-04 19:07 37.64807 23.84351 37137 ft 490 kts 176°
2026-05-04 19:08 37.58082 23.85427 37133 ft 490 kts 176°
2026-05-04 19:08 37.51309 23.86509 37122 ft 491 kts 176°
2026-05-04 19:09 37.44532 23.87591 36802 ft 489 kts 176°
2026-05-04 19:09 37.41139 23.88132 35929 ft 494 kts 176°
2026-05-04 19:09 37.37714 23.88677 35142 ft 498 kts 176°
2026-05-04 19:10 37.34321 23.89217 34468 ft 499 kts 176°
2026-05-04 19:10 37.30876 23.89764 33742 ft 500 kts 175°
2026-05-04 19:10 37.27421 23.90312 32915 ft 501 kts 175°
2026-05-04 19:10 37.23961 23.90862 32255 ft 499 kts 175°
2026-05-04 19:11 37.20531 23.91405 31605 ft 497 kts 175°
2026-05-04 19:11 37.17109 23.91947 30958 ft 494 kts 174°
2026-05-04 19:11 37.13706 23.92485 30315 ft 492 kts 174°
2026-05-04 19:11 37.10315 23.93021 29438 ft 491 kts 174°
2026-05-04 19:12 37.06947 23.93552 28348 ft 496 kts 174°
2026-05-04 19:12 37.00184 23.94618 27335 ft 482 kts 174°
2026-05-04 19:12 36.96876 23.95139 26726 ft 479 kts 174°
2026-05-04 19:13 36.93580 23.95657 26136 ft 475 kts 174°
2026-05-04 19:13 36.90319 23.96170 25552 ft 471 kts 174°
2026-05-04 19:13 36.87080 23.96679 24983 ft 467 kts 174°
2026-05-04 19:13 36.83866 23.97183 24398 ft 464 kts 174°
2026-05-04 19:14 36.80670 23.97683 23826 ft 462 kts 174°
2026-05-04 19:14 36.77533 23.98175 23181 ft 459 kts 174°
2026-05-04 19:14 36.74376 23.98669 22584 ft 455 kts 174°
2026-05-04 19:14 36.71256 23.99157 22021 ft 450 kts 174°
2026-05-04 19:15 36.68161 23.99640 21472 ft 446 kts 174°
2026-05-04 19:15 36.65098 24.00118 20923 ft 442 kts 174°
2026-05-04 19:15 36.62063 24.00592 20393 ft 438 kts 173°
2026-05-04 19:15 36.59051 24.01061 19852 ft 434 kts 174°
2026-05-04 19:16 36.56063 24.01526 19328 ft 432 kts 174°
2026-05-04 19:16 36.53091 24.01989 18806 ft 429 kts 174°
2026-05-04 19:16 36.50179 24.02442 18284 ft 426 kts 173°
2026-05-04 19:16 36.47251 24.02897 17728 ft 423 kts 173°
2026-05-04 19:17 36.44346 24.03348 17219 ft 418 kts 173°
2026-05-04 19:17 36.41476 24.03795 16736 ft 413 kts 173°
2026-05-04 19:17 36.38682 24.04621 16120 ft 412 kts 162°
2026-05-04 19:17 36.35962 24.05662 15674 ft 407 kts 163°
2026-05-04 19:18 36.33267 24.06679 15228 ft 403 kts 163°
2026-05-04 19:18 36.30596 24.07687 14810 ft 399 kts 162°
2026-05-04 19:18 36.27984 24.08671 14335 ft 396 kts 162°
2026-05-04 19:18 36.25357 24.09661 13870 ft 393 kts 162°
2026-05-04 19:19 36.22753 24.10642 13379 ft 390 kts 162°
2026-05-04 19:19 36.20168 24.11614 12906 ft 386 kts 162°
2026-05-04 19:19 36.17613 24.12575 12479 ft 382 kts 162°
2026-05-04 19:19 36.15084 24.13526 12048 ft 378 kts 162°
2026-05-04 19:20 36.12577 24.14467 11615 ft 375 kts 162°
2026-05-04 19:20 36.10102 24.15396 11340 ft 367 kts 162°
2026-05-04 19:20 36.07689 24.16301 11143 ft 358 kts 162°
2026-05-04 19:20 36.05342 24.17181 10958 ft 348 kts 163°
2026-05-04 19:21 36.03083 24.18028 10795 ft 339 kts 162°
2026-05-04 19:21 36.00854 24.18862 10643 ft 330 kts 163°
2026-05-04 19:21 35.98687 24.19673 10495 ft 321 kts 163°
2026-05-04 19:21 35.96576 24.20463 10352 ft 313 kts 162°
2026-05-04 19:22 35.94519 24.21231 10211 ft 305 kts 163°
2026-05-04 19:22 35.92516 24.21979 10023 ft 298 kts 163°
2026-05-04 19:22 35.90535 24.22719 9702 ft 297 kts 163°
2026-05-04 19:22 35.88563 24.23455 9365 ft 295 kts 163°
2026-05-04 19:23 35.86627 24.24177 9065 ft 294 kts 163°
2026-05-04 19:23 35.84679 24.24904 8765 ft 292 kts 162°
2026-05-04 19:23 35.82744 24.25625 8473 ft 290 kts 163°
2026-05-04 19:23 35.80819 24.26341 8177 ft 288 kts 163°
2026-05-04 19:24 35.78905 24.27054 7877 ft 287 kts 163°
2026-05-04 19:24 35.77000 24.27762 7580 ft 285 kts 163°
2026-05-04 19:24 35.75108 24.28466 7298 ft 284 kts 163°
2026-05-04 19:24 35.73220 24.29168 7014 ft 283 kts 163°
2026-05-04 19:25 35.71341 24.29866 6714 ft 282 kts 163°
2026-05-04 19:25 35.69490 24.30553 6405 ft 281 kts 163°
2026-05-04 19:25 35.67616 24.31248 6080 ft 281 kts 163°
2026-05-04 19:25 35.65746 24.31941 5761 ft 280 kts 163°
2026-05-04 19:26 35.63883 24.32631 5454 ft 279 kts 163°
2026-05-04 19:26 35.62039 24.33315 5269 ft 274 kts 163°
2026-05-04 19:26 35.60243 24.33980 5125 ft 265 kts 164°
2026-05-04 19:26 35.58502 24.34625 5014 ft 257 kts 164°
2026-05-04 19:27 35.56838 24.35240 4892 ft 249 kts 164°
2026-05-04 19:27 35.55207 24.35844 4747 ft 241 kts 165°
2026-05-04 19:27 35.53629 24.36428 4649 ft 232 kts 165°
2026-05-04 19:27 35.52118 24.36986 4524 ft 223 kts 165°
2026-05-04 19:28 35.50650 24.37503 4343 ft 216 kts 172°
2026-05-04 19:28 35.49206 24.37380 4056 ft 205 kts 206°
2026-05-04 19:28 35.48079 24.36429 3798 ft 193 kts 236°
2026-05-04 19:28 35.47507 24.34992 3573 ft 186 kts 262°
2026-05-04 19:29 35.47512 24.33455 3346 ft 182 kts 282°
2026-05-04 19:29 35.47784 24.31956 3139 ft 176 kts 286°
2026-05-04 19:29 35.48141 24.30540 2885 ft 172 kts 290°
2026-05-04 19:29 35.48556 24.29188 2645 ft 167 kts 291°
2026-05-04 19:30 35.48978 24.27892 2420 ft 160 kts 291°
2026-05-04 19:30 35.49383 24.26645 2208 ft 155 kts 291°
2026-05-04 19:30 35.49781 24.25419 2002 ft 155 kts 290°
2026-05-04 19:30 35.50177 24.24201 1797 ft 151 kts 291°
2026-05-04 19:31 35.50545 24.23069 1634 ft 135 kts 291°
2026-05-04 19:31 35.50886 24.22022 1414 ft 133 kts 290°
2026-05-04 19:31 35.51226 24.20970 1276 ft 131 kts 290°
2026-05-04 19:31 35.51569 24.19909 1085 ft 135 kts 289°
2026-05-04 19:32 35.51917 24.18829 875 ft 138 kts 289°
2026-05-04 19:32 35.52279 24.17737 711 ft 140 kts 289°
2026-05-04 19:32 35.52639 24.16610 524 ft 143 kts 289°
2026-05-04 19:32 35.52982 24.15560 469 ft 115 kts 291°
2026-05-04 19:33 35.53231 24.14794 459 ft 79 kts 292°
2026-05-04 19:33 35.53357 24.14404 450 ft 37 kts 292°
2026-05-04 19:33 35.53408 24.14267 449 ft 4 kts 331°
2026-05-04 19:33 35.53443 24.14267 449 ft 6 kts
2026-05-04 19:34 35.53488 24.14284 449 ft 8 kts 19°
2026-05-04 19:34 35.53547 24.14314 449 ft 10 kts 20°
2026-05-04 19:34 35.53624 24.14348 448 ft 13 kts 20°
2026-05-04 19:34 35.53701 24.14301 447 ft 15 kts 293°
2026-05-04 19:35 35.53741 24.14175 433 ft 13 kts 291°
2026-05-04 19:35 35.53773 24.14078 437 ft 14 kts 293°
2026-05-04 19:35 35.53813 24.13957 433 ft 16 kts 291°
2026-05-04 19:35 35.53837 24.13903 437 ft 0 kts 325°
2026-05-04 19:36 35.53851 24.13901 437 ft 4 kts
2026-05-04 19:36 35.53856 24.13902 440 ft 0 kts 12°